St. Augustine, FL

5:10 PM EDT on July 20, 2017 (GMT -0400)
Saint Augustine

Weather History for KSGJ - May, 2014

Change the Weather History Date:

Sunday, May 4, 2014

  Actual Average Record
Temperature  
Mean Temperature 68 °F -  
Max Temperature 79 °F 78 °F 90 °F (1984)
Min Temperature 57 °F 61 °F 53 °F (1988)
Cooling Degree Days 3    
Growing Degree Days 18 (Base 50)    
Moisture  
Dew Point 54 °F    
Average Humidity 65    
Maximum Humidity 97    
Minimum Humidity 36    
Precipitation  
Precipitation 0.01 in - - ()
Sea Level Pressure  
Sea Level Pressure 30.06 in    
Wind  
Wind Speed 7 mph (NW)    
Max Wind Speed 14 mph    
Max Gust Speed -    
Visibility 10 miles    
Events      
Averages and records for this station are not official NWS values.
T = Trace of Precipitation, MM = Missing Value Source: NWS Daily Summary

Daily Weather History Graph

Daily Weather History Graph

Search for Another Location

Airport or City:

Trip Planner

Search our weather history database for the weather conditions in past years. The results will help you decide how hot, cold, wet, or windy it might be!

Date:

Astronomy

May. 04, 2014 Rise Set
Actual Time 6:40 AM EDT 8:04 PM EDT
Civil Twilight 6:14 AM EDT 8:30 PM EDT
Nautical Twilight 5:44 AM EDT 9:00 PM EDT
Astronomical Twilight 5:12 AM EDT 9:32 PM EDT
Moon 11:04 AM EDT (5/4) 12:06 AM EDT (5/4)
Length of Visible Light 14h 15m
Length of Day
13h 24m
Waxing Crescent, 27% of the Moon is Illuminated
May 4
Waxing Crescent
May 6
First Quarter
May 14
Full
May 21
Last Quarter
May 28
New

Hourly Weather History & Observations

Time (EDT) Temp. Dew Point Humidity Pressure Visibility Wind Dir Wind Speed Gust Speed Precip Events Conditions
12:58 AM 57.9 °F 57.0 °F 97% 30.06 in 10.0 mi WSW 5.8 mph - N/A   Clear
1:58 AM 59.0 °F 57.0 °F 93% 30.05 in 10.0 mi West 9.2 mph - N/A   Clear
2:58 AM 59.0 °F 57.0 °F 93% 30.03 in 10.0 mi West 9.2 mph - N/A   Clear
3:58 AM 57.9 °F 57.0 °F 97% 30.03 in 10.0 mi West 5.8 mph - 0.01 in   Clear
4:58 AM 57.9 °F 55.9 °F 93% 30.04 in 10.0 mi West 6.9 mph - N/A   Clear
5:58 AM 57.9 °F 55.0 °F 90% 30.05 in 10.0 mi West 5.8 mph - N/A   Clear
6:58 AM 57.0 °F 54.0 °F 89% 30.07 in 10.0 mi West 5.8 mph - N/A   Clear
7:58 AM 60.1 °F 55.0 °F 83% 30.08 in 10.0 mi WNW 8.1 mph - N/A   Clear
8:58 AM 66.0 °F 57.0 °F 73% 30.09 in 10.0 mi NW 9.2 mph - N/A   Clear
9:58 AM 72.0 °F 55.9 °F 57% 30.10 in 10.0 mi NW 9.2 mph - N/A   Clear
10:58 AM 75.9 °F 53.1 °F 45% 30.10 in 10.0 mi North 12.7 mph - N/A   Clear
11:58 AM 78.1 °F 52.0 °F 40% 30.10 in 10.0 mi NNE 13.8 mph - N/A   Clear
12:58 PM 77.0 °F 53.1 °F 43% 30.09 in 10.0 mi NNE 12.7 mph - N/A   Clear
1:58 PM 78.1 °F 55.0 °F 45% 30.09 in 10.0 mi NNE 9.2 mph - N/A   Clear
2:58 PM 79.0 °F 50.0 °F 36% 30.07 in 10.0 mi NNE 10.4 mph - N/A   Clear
3:58 PM 79.0 °F 50.0 °F 36% 30.05 in 10.0 mi NE 11.5 mph - N/A   Clear
4:58 PM 77.0 °F 50.0 °F 39% 30.04 in 10.0 mi East 6.9 mph - N/A   Clear
5:58 PM 77.0 °F 48.0 °F 36% 30.04 in 10.0 mi East 5.8 mph - N/A   Clear
6:58 PM 77.0 °F 48.0 °F 36% 30.04 in 10.0 mi SE 5.8 mph - N/A   Clear
7:58 PM 73.0 °F 52.0 °F 48% 30.04 in 10.0 mi SSE 3.5 mph - N/A   Clear
8:58 PM 68.0 °F 54.0 °F 61% 30.06 in 10.0 mi Calm Calm - N/A   Clear
9:58 PM 64.0 °F 55.0 °F 73% 30.07 in 7.0 mi Calm Calm - N/A   Clear
10:58 PM 62.1 °F 54.0 °F 75% 30.08 in 10.0 mi SW 3.5 mph - N/A   Clear
11:58 PM 63.0 °F 53.1 °F 70% 30.08 in 10.0 mi Calm Calm - N/A   Clear